| time (UTC) | temp F | wind direction | speed MPH | gust MPH | rain 1hr in | rain 24hr in | rain mn in | humidity % | barometer mb |
| 20260506194125 | 59 | 338 | 8.0 | 18.0 | 0.00 | 0.27 | 0.00 | 79 | 1007.1 |
| 20260506193631 | 59 | 293 | 13.0 | 18.0 | 0.00 | 0.27 | 0.00 | 78 | 1007.0 |
| 20260506193128 | 59 | 293 | 9.0 | 17.0 | 0.00 | 0.27 | 0.00 | 78 | 1006.9 |
| 20260506192622 | 59 | 315 | 12.0 | 17.0 | 0.00 | 0.27 | 0.00 | 78 | 1006.6 |
| 20260506192129 | 59 | 293 | 10.0 | 13.0 | 0.00 | 0.27 | 0.00 | 78 | 1006.6 |
| 20260506191622 | 59 | 270 | 9.0 | 15.0 | 0.00 | 0.27 | 0.00 | 78 | 1006.6 |
| 20260506191122 | 59 | 293 | 10.0 | 15.0 | 0.00 | 0.27 | 0.00 | 78 | 1006.6 |
| 20260506190625 | 59 | 293 | 10.0 | 12.0 | 0.00 | 0.27 | 0.00 | 79 | 1006.4 |
| 20260506190125 | 59 | 293 | 9.0 | 11.0 | 0.00 | 0.27 | 0.00 | 79 | 1006.3 |
| 20260506185622 | 59 | 270 | 8.0 | 11.0 | 0.00 | 0.27 | 0.00 | 79 | 1006.4 |
| 20260506185125 | 59 | 270 | 9.0 | 12.0 | 0.00 | 0.27 | 0.00 | 78 | 1006.2 |
| 20260506184622 | 60 | 270 | 10.0 | 15.0 | 0.00 | 0.27 | 0.00 | 77 | 1006.2 |
| 20260506184125 | 60 | 293 | 8.0 | 15.0 | 0.00 | 0.27 | 0.00 | 77 | 1006.0 |
| 20260506183622 | 60 | 270 | 9.0 | 12.0 | 0.00 | 0.27 | 0.00 | 77 | 1005.9 |
| 20260506183122 | 60 | 270 | 9.0 | 17.0 | 0.00 | 0.27 | 0.00 | 76 | 1006.3 |
| 20260506182631 | 60 | 293 | 9.0 | 13.0 | 0.00 | 0.27 | 0.00 | 77 | 1006.0 |
| 20260506182125 | 60 | 293 | 7.0 | 11.0 | 0.00 | 0.27 | 0.00 | 77 | 1006.2 |
| 20260506181625 | 60 | 293 | 8.0 | 10.0 | 0.00 | 0.27 | 0.00 | 77 | 1005.9 |
| 20260506181125 | 60 | 315 | 7.0 | 10.0 | 0.00 | 0.27 | 0.00 | 77 | 1006.3 |
| 20260506180628 | 60 | 293 | 5.0 | 6.0 | 0.00 | 0.27 | 0.00 | 75 | 1005.9 |
| 20260506180125 | 60 | 293 | 5.0 | 12.0 | 0.00 | 0.27 | 0.00 | 75 | 1006.0 |
| 20260506175622 | 61 | 293 | 9.0 | 15.0 | 0.00 | 0.27 | 0.00 | 74 | 1006.0 |
| 20260506175122 | 61 | 270 | 8.0 | 11.0 | 0.00 | 0.27 | 0.00 | 74 | 1006.0 |
| 20260506174625 | 61 | 270 | 9.0 | 12.0 | 0.00 | 0.27 | 0.00 | 74 | 1006.0 |
| 20260506174122 | 61 | 270 | 9.0 | 11.0 | 0.00 | 0.27 | 0.00 | 73 | 1005.8 |
| 20260506173625 | 62 | 293 | 9.0 | 10.0 | 0.00 | 0.27 | 0.00 | 74 | 1005.9 |
| 20260506173125 | 61 | 293 | 9.0 | 12.0 | 0.00 | 0.27 | 0.00 | 73 | 1006.0 |
| 20260506172628 | 62 | 270 | 7.0 | 11.0 | 0.00 | 0.27 | 0.00 | 74 | 1005.8 |
| 20260506172128 | 62 | 270 | 9.0 | 12.0 | 0.00 | 0.27 | 0.00 | 73 | 1005.9 |
| 20260506171622 | 62 | 270 | 6.0 | 12.0 | 0.00 | 0.27 | 0.00 | 73 | 1005.8 |
| 20260506171122 | 62 | 270 | 9.0 | 15.0 | 0.00 | 0.27 | 0.00 | 73 | 1005.9 |
| 20260506170622 | 62 | 270 | 9.0 | 13.0 | 0.00 | 0.27 | 0.00 | 73 | 1005.6 |
| 20260506170122 | 62 | 270 | 9.0 | 12.0 | 0.00 | 0.27 | 0.00 | 74 | 1005.8 |
| 20260506165622 | 62 | 270 | 9.0 | 13.0 | 0.00 | 0.27 | 0.00 | 73 | 1006.0 |
| 20260506165125 | 62 | 270 | 9.0 | 15.0 | 0.00 | 0.27 | 0.00 | 73 | 1005.8 |
| 20260506164622 | 62 | 270 | 11.0 | 15.0 | 0.00 | 0.27 | 0.00 | 72 | 1005.6 |
| 20260506164125 | 62 | 270 | 11.0 | 17.0 | 0.00 | 0.27 | 0.00 | 72 | 1005.9 |
| 20260506163622 | 62 | 270 | 11.0 | 17.0 | 0.00 | 0.27 | 0.00 | 71 | 1005.7 |
| 20260506163125 | 62 | 293 | 12.0 | 17.0 | 0.00 | 0.27 | 0.00 | 72 | 1006.0 |
| 20260506162622 | 62 | 293 | 13.0 | 18.0 | 0.00 | 0.27 | 0.00 | 71 | 1005.6 |
| 20260506162122 | 63 | 293 | 12.0 | 15.0 | 0.00 | 0.27 | 0.00 | 71 | 1005.6 |
| 20260506161622 | 63 | 248 | 10.0 | 17.0 | 0.00 | 0.27 | 0.00 | 71 | 1005.7 |
| 20260506161125 | 63 | 293 | 11.0 | 17.0 | 0.00 | 0.27 | 0.00 | 71 | 1005.7 |
| 20260506160623 | 62 | 270 | 13.0 | 22.0 | 0.00 | 0.27 | 0.00 | 69 | 1005.7 |
| 20260506160125 | 63 | 293 | 11.0 | 20.0 | 0.00 | 0.27 | 0.00 | 69 | 1005.9 |
| 20260506155625 | 63 | 270 | 14.0 | 18.0 | 0.00 | 0.27 | 0.00 | 69 | 1005.7 |
| 20260506155122 | 63 | 293 | 12.0 | 15.0 | 0.00 | 0.27 | 0.00 | 70 | 1005.7 |
| 20260506154622 | 63 | 270 | 12.0 | 22.0 | 0.00 | 0.27 | 0.00 | 69 | 1005.7 |
| 20260506154125 | 62 | 270 | 14.0 | 24.0 | 0.00 | 0.27 | 0.00 | 68 | 1005.8 |
| 20260506153622 | 63 | 293 | 12.0 | 19.0 | 0.00 | 0.27 | 0.00 | 69 | 1005.7 |
| 20260506153127 | 62 | 293 | 15.0 | 19.0 | 0.00 | 0.27 | 0.00 | 70 | 1005.8 |
| 20260506152625 | 62 | 293 | 14.0 | 18.0 | 0.00 | 0.27 | 0.00 | 70 | 1005.7 |
| 20260506152128 | 63 | 270 | 12.0 | 19.0 | 0.00 | 0.27 | 0.00 | 70 | 1005.6 |
| 20260506151625 | 63 | 248 | 13.0 | 24.0 | 0.00 | 0.27 | 0.00 | 70 | 1005.8 |
| 20260506151122 | 62 | 270 | 15.0 | 22.0 | 0.00 | 0.27 | 0.00 | 70 | 1005.7 |
| 20260506150625 | 62 | 315 | 13.0 | 22.0 | 0.00 | 0.27 | 0.00 | 68 | 1005.5 |
| 20260506150122 | 62 | 270 | 12.0 | 26.0 | 0.00 | 0.27 | 0.00 | 71 | 1005.7 |
| 20260506145622 | 62 | 270 | 19.0 | 27.0 | 0.00 | 0.27 | 0.00 | 71 | 1005.8 |
| 20260506145125 | 63 | 293 | 14.0 | 24.0 | 0.00 | 0.27 | 0.00 | 71 | 1006.0 |
| 20260506144622 | 62 | 270 | 19.0 | 28.0 | 0.00 | 0.27 | 0.00 | 71 | 1005.8 |
| 20260506144122 | 62 | 293 | 19.0 | 26.0 | 0.00 | 0.27 | 0.00 | 72 | 1005.8 |
| 20260506143622 | 62 | 293 | 18.0 | 26.0 | 0.00 | 0.27 | 0.00 | 71 | 1005.8 |
| 20260506143128 | 62 | 270 | 19.0 | 22.0 | 0.00 | 0.27 | 0.00 | 73 | 1005.8 |
| 20260506142622 | 61 | 293 | 18.0 | 25.0 | 0.00 | 0.27 | 0.00 | 74 | 1005.7 |
| 20260506142125 | 62 | 270 | 15.0 | 22.0 | 0.00 | 0.27 | 0.00 | 75 | 1006.0 |
| 20260506141625 | 61 | 270 | 18.0 | 22.0 | 0.00 | 0.27 | 0.00 | 75 | 1006.0 |
| 20260506141122 | 61 | 270 | 17.0 | 25.0 | 0.00 | 0.27 | 0.00 | 74 | 1006.0 |
| 20260506140622 | 62 | 293 | 19.0 | 27.0 | 0.00 | 0.27 | 0.00 | 76 | 1006.0 |
| 20260506140125 | 61 | 270 | 22.0 | 27.0 | 0.00 | 0.27 | 0.00 | 75 | 1006.0 |
| 20260506135622 | 61 | 270 | 18.0 | 27.0 | 0.00 | 0.27 | 0.00 | 75 | 1006.2 |
| 20260506135122 | 62 | 270 | 19.0 | 25.0 | 0.00 | 0.27 | 0.00 | 75 | 1006.2 |
| 20260506134625 | 61 | 293 | 21.0 | 25.0 | 0.00 | 0.27 | 0.00 | 77 | 1006.0 |
| 20260506134122 | 61 | 270 | 18.0 | 25.0 | 0.00 | 0.27 | 0.00 | 78 | 1006.5 |
| 20260506133628 | 61 | 270 | 16.0 | 25.0 | 0.00 | 0.27 | 0.00 | 79 | 1006.2 |
| 20260506133128 | 60 | 270 | 20.0 | 26.0 | 0.00 | 0.27 | 0.00 | 80 | 1006.2 |
| 20260506132625 | 60 | 270 | 22.0 | 26.0 | 0.00 | 0.27 | 0.00 | 80 | 1006.0 |
| 20260506132122 | 59 | 270 | 22.0 | 27.0 | 0.00 | 0.27 | 0.00 | 79 | 1006.4 |
| 20260506131625 | 60 | 270 | 22.0 | 27.0 | 0.00 | 0.27 | 0.00 | 78 | 1006.2 |
| 20260506131122 | 61 | 270 | 20.0 | 28.0 | 0.00 | 0.27 | 0.00 | 78 | 1006.3 |
| 20260506130628 | 60 | 270 | 22.0 | 26.0 | 0.00 | 0.27 | 0.00 | 77 | 1006.5 |
| 20260506130128 | 60 | 293 | 21.0 | 26.0 | 0.00 | 0.27 | 0.00 | 77 | 1006.3 |
| 20260506125625 | 59 | 270 | 23.0 | 26.0 | 0.00 | 0.27 | 0.00 | 77 | 1006.5 |
| 20260506125122 | 60 | 270 | 21.0 | 27.0 | 0.00 | 0.27 | 0.00 | 79 | 1006.4 |
| 20260506124622 | 60 | 293 | 22.0 | 27.0 | 0.00 | 0.27 | 0.00 | 78 | 1006.3 |
| 20260506124125 | 60 | 248 | 22.0 | 27.0 | 0.00 | 0.27 | 0.00 | 78 | 1006.2 |
| 20260506123622 | 60 | 293 | 20.0 | 25.0 | 0.00 | 0.27 | 0.00 | 79 | 1006.5 |
| 20260506123122 | 60 | 293 | 20.0 | 26.0 | 0.00 | 0.27 | 0.00 | 79 | 1006.2 |
| 20260506122625 | 60 | 270 | 22.0 | 27.0 | 0.00 | 0.27 | 0.00 | 77 | 1006.0 |
| 20260506122125 | 60 | 270 | 22.0 | 25.0 | 0.00 | 0.27 | 0.00 | 77 | 1006.4 |
| 20260506121622 | 60 | 293 | 21.0 | 26.0 | 0.00 | 0.27 | 0.00 | 77 | 1006.4 |
| 20260506121122 | 60 | 270 | 19.0 | 28.0 | 0.00 | 0.27 | 0.00 | 77 | 1006.4 |
| 20260506120625 | 60 | 270 | 22.0 | 28.0 | 0.00 | 0.27 | 0.00 | 78 | 1006.5 |
| 20260506120128 | 60 | 270 | 22.0 | 28.0 | 0.00 | 0.27 | 0.00 | 78 | 1006.4 |
| 20260506115622 | 60 | 293 | 22.0 | 27.0 | 0.00 | 0.27 | 0.00 | 81 | 1006.0 |
| 20260506115122 | 60 | 293 | 22.0 | 29.0 | 0.00 | 0.27 | 0.00 | 81 | 1006.2 |
| 20260506114625 | 59 | 270 | 25.0 | 31.0 | 0.00 | 0.27 | 0.00 | 81 | 1006.4 |
| 20260506114122 | 60 | 270 | 25.0 | 31.0 | 0.00 | 0.27 | 0.00 | 81 | 1006.4 |
| 20260506113625 | 59 | 293 | 27.0 | 31.0 | 0.00 | 0.27 | 0.00 | 80 | 1006.2 |
| 20260506113122 | 59 | 270 | 26.0 | 34.0 | 0.00 | 0.27 | 0.00 | 81 | 1006.0 |
| 20260506112622 | 60 | 270 | 25.0 | 29.0 | 0.00 | 0.27 | 0.00 | 81 | 1006.3 |
| 20260506112125 | 60 | 270 | 23.0 | 29.0 | 0.00 | 0.27 | 0.00 | 79 | 1006.3 |
| 20260506111625 | 60 | 270 | 25.0 | 31.0 | 0.00 | 0.27 | 0.00 | 78 | 1006.0 |
| 20260506111128 | 60 | 270 | 22.0 | 31.0 | 0.00 | 0.27 | 0.00 | 79 | 1006.3 |
| 20260506110622 | 60 | 270 | 24.0 | 29.0 | 0.00 | 0.27 | 0.00 | 79 | 1006.3 |
| 20260506110125 | 60 | 293 | 25.0 | 29.0 | 0.00 | 0.27 | 0.00 | 77 | 1006.3 |
| 20260506105625 | 60 | 270 | 22.0 | 29.0 | 0.00 | 0.27 | 0.00 | 78 | 1006.2 |
| 20260506105122 | 60 | 270 | 22.0 | 29.0 | 0.00 | 0.27 | 0.00 | 77 | 1005.9 |
| 20260506104625 | 60 | 293 | 23.0 | 28.0 | 0.00 | 0.27 | 0.00 | 79 | 1006.5 |
| 20260506104125 | 60 | 270 | 22.0 | 28.0 | 0.00 | 0.27 | 0.00 | 78 | 1006.4 |
| 20260506103628 | 60 | 270 | 19.0 | 29.0 | 0.00 | 0.27 | 0.00 | 78 | 1006.4 |
| 20260506103125 | 60 | 293 | 23.0 | 31.0 | 0.00 | 0.27 | 0.00 | 77 | 1006.3 |
| 20260506102622 | 60 | 270 | 23.0 | 29.0 | 0.00 | 0.27 | 0.00 | 77 | 1006.2 |
| 20260506102128 | 60 | 270 | 22.0 | 28.0 | 0.00 | 0.27 | 0.00 | 77 | 1006.3 |
| 20260506101622 | 59 | 270 | 22.0 | 28.0 | 0.00 | 0.27 | 0.00 | 78 | 1006.4 |
| 20260506101125 | 60 | 293 | 20.0 | 27.0 | 0.00 | 0.27 | 0.00 | 78 | 1006.4 |
| 20260506100622 | 60 | 270 | 22.0 | 27.0 | 0.00 | 0.27 | 0.00 | 75 | 1006.4 |
| 20260506100122 | 60 | 293 | 22.0 | 27.0 | 0.00 | 0.27 | 0.00 | 74 | 1006.2 |
| 20260506095622 | 60 | 270 | 21.0 | 26.0 | 0.00 | 0.27 | 0.00 | 72 | 1006.2 |
| 20260506095122 | 60 | 270 | 21.0 | 26.0 | 0.00 | 0.27 | 0.00 | 70 | 1006.4 |
| 20260506094622 | 60 | 293 | 22.0 | 28.0 | 0.00 | 0.27 | 0.00 | 69 | 1006.3 |
| 20260506094122 | 61 | 293 | 20.0 | 25.0 | 0.00 | 0.27 | 0.00 | 72 | 1006.2 |
| 20260506093625 | 60 | 270 | 22.0 | 25.0 | 0.00 | 0.27 | 0.00 | 72 | 1006.0 |
| 20260506093128 | 60 | 270 | 21.0 | 24.0 | 0.00 | 0.27 | 0.00 | 74 | 1006.2 |
| 20260506092625 | 60 | 270 | 17.0 | 20.0 | 0.00 | 0.27 | 0.00 | 75 | 1006.5 |
| 20260506092122 | 60 | 270 | 14.0 | 19.0 | 0.00 | 0.27 | 0.00 | 75 | 1006.3 |
| 20260506091625 | 59 | 248 | 15.0 | 18.0 | 0.00 | 0.27 | 0.00 | 77 | 1006.2 |
| 20260506091122 | 60 | 270 | 14.0 | 18.0 | 0.00 | 0.27 | 0.00 | 77 | 1006.3 |
| 20260506090625 | 59 | 270 | 15.0 | 18.0 | 0.00 | 0.27 | 0.00 | 75 | 1006.4 |
| 20260506090128 | 59 | 293 | 13.0 | 17.0 | 0.00 | 0.27 | 0.00 | 78 | 1006.4 |
| 20260506085622 | 59 | 270 | 12.0 | 15.0 | 0.00 | 0.27 | 0.00 | 78 | 1006.2 |
| 20260506085125 | 59 | 270 | 10.0 | 15.0 | 0.00 | 0.27 | 0.00 | 79 | 1006.2 |
| 20260506084625 | 58 | 270 | 12.0 | 15.0 | 0.00 | 0.27 | 0.00 | 80 | 1005.9 |
| 20260506084128 | 59 | 270 | 10.0 | 13.0 | 0.00 | 0.27 | 0.00 | 80 | 1006.2 |
| 20260506083622 | 59 | 293 | 10.0 | 15.0 | 0.00 | 0.27 | 0.00 | 79 | 1005.7 |
| 20260506083122 | 59 | 270 | 11.0 | 17.0 | 0.00 | 0.27 | 0.00 | 78 | 1005.9 |
| 20260506082622 | 59 | 270 | 10.0 | 15.0 | 0.00 | 0.27 | 0.00 | 78 | 1006.0 |
| 20260506082122 | 58 | 248 | 11.0 | 15.0 | 0.00 | 0.27 | 0.00 | 78 | 1005.9 |
| 20260506081622 | 59 | 270 | 12.0 | 13.0 | 0.00 | 0.27 | 0.00 | 78 | 1006.2 |
| 20260506081122 | 59 | 270 | 10.0 | 15.0 | 0.00 | 0.27 | 0.00 | 76 | 1006.0 |
| 20260506080122 | 60 | 270 | 12.0 | 15.0 | 0.00 | 0.27 | 0.00 | 73 | 1005.9 |
| 20260506073122 | 59 | 270 | 9.0 | 10.0 | 0.00 | 0.27 | 0.00 | 70 | 1006.0 |
| 20260506072625 | 58 | 293 | 4.0 | 9.0 | 0.00 | 0.27 | 0.00 | 73 | 1005.8 |
| 20260506072122 | 58 | 293 | 6.0 | 10.0 | 0.00 | 0.27 | 0.00 | 73 | 1005.9 |
| 20260506071625 | 58 | 270 | 8.0 | 10.0 | 0.00 | 0.27 | 0.00 | 74 | 1005.9 |
| 20260506071125 | 58 | 248 | 9.0 | 10.0 | 0.00 | 0.27 | 0.00 | 76 | 1005.8 |
| 20260506070625 | 58 | 270 | 4.0 | 6.0 | 0.00 | 0.27 | 0.00 | 79 | 1005.8 |
| 20260506070122 | 57 | 270 | 5.0 | 6.0 | 0.00 | 0.27 | 0.00 | 81 | 1005.6 |
| 20260506062128 | 56 | 270 | 6.0 | 8.0 | 0.00 | 0.28 | 0.00 | 83 | 1005.6 |
| 20260506061622 | 55 | 248 | 6.0 | 8.0 | 0.00 | 0.28 | 0.00 | 83 | 1005.6 |
| 20260506061125 | 55 | 270 | 6.0 | 8.0 | 0.00 | 0.28 | 0.00 | 83 | 1005.5 |
| 20260506060628 | 55 | 293 | 6.0 | 8.0 | 0.00 | 0.28 | 0.00 | 82 | 1005.7 |
| 20260506060122 | 55 | 293 | 6.0 | 8.0 | 0.00 | 0.28 | 0.00 | 82 | 1005.6 |
| 20260506051122 | 55 | 248 | 2.0 | 2.0 | 0.00 | 0.28 | 0.00 | 76 | 1005.3 |
| 20260506050622 | 55 | 23 | 0.0 | 2.0 | 0.00 | 0.28 | 0.00 | 77 | 1005.2 |
| 20260506050122 | 56 | 180 | 0.0 | 2.0 | 0.00 | 0.28 | 0.00 | 76 | 1005.3 |
| 20260506045122 | 56 | 135 | 3.0 | 4.0 | 0.00 | 0.28 | 0.00 | 76 | 1005.2 |
| 20260506044628 | 56 | 158 | 3.0 | 4.0 | 0.00 | 0.28 | 0.00 | 77 | 1005.0 |
| 20260506044125 | 55 | 135 | 4.0 | 6.0 | 0.01 | 0.28 | 0.00 | 77 | 1005.1 |
| 20260506043628 | 55 | 158 | 3.0 | 6.0 | 0.03 | 0.28 | 0.00 | 77 | 1005.1 |
| 20260506043128 | 56 | 158 | 3.0 | 4.0 | 0.05 | 0.28 | 0.00 | 76 | 1005.2 |
| 20260506042631 | 55 | 203 | 3.0 | 6.0 | 0.10 | 0.28 | 0.00 | 77 | 1005.2 |
| 20260506042122 | 55 | 158 | 4.0 | 6.0 | 0.11 | 0.28 | 0.00 | 76 | 1005.1 |
| 20260506041628 | 55 | 158 | 4.0 | 6.0 | 0.12 | 0.28 | 0.00 | 76 | 1005.2 |
| 20260506041125 | 55 | 158 | 4.0 | 6.0 | 0.12 | 0.28 | 0.00 | 78 | 1005.1 |
| 20260506040622 | 54 | 135 | 1.0 | 4.0 | 0.12 | 0.28 | 0.00 | 81 | 1005.2 |
| 20260506040125 | 54 | 135 | 3.0 | 8.0 | 0.12 | 0.28 | 0.00 | 82 | 1005.1 |
| 20260506035631 | 54 | 135 | 6.0 | 8.0 | 0.12 | 0.28 | 0.00 | 82 | 1005.3 |
| 20260506035128 | 55 | 113 | 5.0 | 8.0 | 0.12 | 0.28 | 0.00 | 81 | 1005.3 |
| 20260506034628 | 55 | 293 | 6.0 | 18.0 | 0.12 | 0.29 | 0.00 | 82 | 1005.6 |
| 20260506034122 | 54 | 270 | 13.0 | 24.0 | 0.11 | 0.28 | 0.00 | 82 | 1006.0 |
| 20260506033625 | 54 | 270 | 19.0 | 28.0 | 0.09 | 0.25 | 0.00 | 82 | 1005.8 |
| 20260506033125 | 54 | 293 | 24.0 | 28.0 | 0.07 | 0.23 | 0.00 | 80 | 1005.6 |
| 20260506032628 | 55 | 293 | 15.0 | 22.0 | 0.02 | 0.18 | 0.00 | 78 | 1005.8 |
| 20260506032122 | 55 | 270 | 17.0 | 25.0 | 0.01 | 0.17 | 0.00 | 77 | 1005.6 |
| 20260506031622 | 55 | 315 | 15.0 | 24.0 | 0.00 | 0.16 | 0.00 | 77 | 1005.5 |
| 20260506031122 | 57 | 248 | 15.0 | 17.0 | 0.00 | 0.16 | 0.00 | 74 | 1005.7 |
| 20260506030622 | 57 | 315 | 1.0 | 8.0 | 0.00 | 0.16 | 0.00 | 74 | 1005.3 |
| 20260506030131 | 56 | 45 | 4.0 | 6.0 | 0.00 | 0.16 | 0.00 | 77 | 1005.1 |
| 20260506025622 | 56 | 90 | 3.0 | 6.0 | 0.00 | 0.16 | 0.00 | 78 | 1005.2 |
| 20260506025125 | 56 | 113 | 6.0 | 6.0 | 0.00 | 0.16 | 0.00 | 79 | 1005.3 |
| 20260506024625 | 57 | 90 | 2.0 | 4.0 | 0.00 | 0.16 | 0.00 | 78 | 1005.5 |
| 20260506024122 | 57 | 135 | 3.0 | 4.0 | 0.00 | 0.16 | 0.00 | 76 | 1005.5 |
| 20260506023625 | 57 | 135 | 3.0 | 4.0 | 0.00 | 0.16 | 0.00 | 74 | 1005.5 |
| 20260506023125 | 57 | 113 | 1.0 | 3.0 | 0.00 | 0.16 | 0.00 | 74 | 1005.5 |
| 20260506022622 | 57 | 135 | 2.0 | 4.0 | 0.00 | 0.16 | 0.00 | 74 | 1005.3 |
| 20260506022125 | 57 | 158 | 1.0 | 6.0 | 0.00 | 0.16 | 0.00 | 75 | 1005.7 |
| 20260506021622 | 58 | 158 | 5.0 | 6.0 | 0.00 | 0.16 | 0.00 | 70 | 1005.8 |
| 20260506021122 | 58 | 113 | 0.0 | 3.0 | 0.00 | 0.16 | 0.00 | 69 | 1005.8 |
| 20260506020622 | 57 | 90 | 1.0 | 3.0 | 0.00 | 0.17 | 0.00 | 72 | 1005.7 |
| 20260506020122 | 57 | 90 | 2.0 | 3.0 | 0.00 | 0.27 | 0.00 | 75 | 1005.9 |
| 20260506015622 | 55 | 113 | 2.0 | 3.0 | 0.00 | 0.27 | 0.00 | 79 | 1006.2 |
| 20260506015125 | 56 | 338 | 0.0 | 2.0 | 0.00 | 0.27 | 0.00 | 81 | 1006.4 |
| 20260506014622 | 56 | 248 | 1.0 | 2.0 | 0.00 | 0.27 | 0.00 | 82 | 1006.3 |
| 20260506014122 | 56 | 270 | 1.0 | 2.0 | 0.00 | 0.27 | 0.00 | 82 | 1006.5 |
| 20260506013625 | 55 | 0 | 0.0 | 2.0 | 0.00 | 0.27 | 0.00 | 83 | 1006.5 |
| 20260506013125 | 56 | 113 | 0.0 | 3.0 | 0.00 | 0.27 | 0.00 | 83 | 1006.3 |
| 20260506012625 | 56 | 113 | 0.0 | 2.0 | 0.00 | 0.27 | 0.00 | 83 | 1006.3 |
| 20260506012125 | 55 | 68 | 0.0 | 2.0 | 0.00 | 0.27 | 0.00 | 83 | 1006.2 |
| 20260506011625 | 55 | 293 | 1.0 | 2.0 | 0.00 | 0.27 | 0.00 | 84 | 1006.4 |
| 20260506011122 | 55 | 0 | 1.0 | 1.0 | 0.00 | 0.27 | 0.00 | 84 | 1006.4 |
| 20260506010631 | 55 | 45 | 0.0 | 3.0 | 0.00 | 0.27 | 0.00 | 84 | 1006.4 |
| 20260506010122 | 55 | 293 | 2.0 | 3.0 | 0.00 | 0.27 | 0.00 | 84 | 1006.3 |
| 20260506005622 | 55 | 90 | 0.0 | 4.0 | 0.01 | 0.27 | 0.00 | 85 | 1006.4 |
| 20260506005125 | 55 | 113 | 3.0 | 6.0 | 0.01 | 0.27 | 0.00 | 85 | 1006.0 |
| 20260506004625 | 55 | 135 | 6.0 | 6.0 | 0.02 | 0.27 | 0.00 | 88 | 1005.8 |
| 20260506004125 | 54 | 113 | 1.0 | 4.0 | 0.02 | 0.27 | 0.00 | 88 | 1005.9 |
| 20260506003625 | 55 | 68 | 3.0 | 4.0 | 0.02 | 0.27 | 0.00 | 89 | 1006.0 |
| 20260506003122 | 56 | 45 | 0.0 | 2.0 | 0.02 | 0.27 | 0.00 | 89 | 1006.3 |
| 20260506002622 | 56 | 315 | 0.0 | 3.0 | 0.02 | 0.27 | 0.00 | 89 | 1006.8 |
| 20260506002128 | 55 | 180 | 1.0 | 3.0 | 0.02 | 0.27 | 0.00 | 89 | 1006.8 |
| 20260506001631 | 56 | 315 | 0.0 | 3.0 | 0.02 | 0.27 | 0.00 | 89 | 1006.8 |
| 20260506001125 | 56 | 293 | 3.0 | 4.0 | 0.03 | 0.27 | 0.00 | 89 | 1007.0 |
| 20260506000625 | 56 | 113 | 0.0 | 1.0 | 0.03 | 0.27 | 0.00 | 89 | 1007.2 |
| 20260506000128 | 56 | 113 | 0.0 | 1.0 | 0.03 | 0.27 | 0.00 | 89 | 1007.2 |
| 20260505235625 | 56 | 338 | 0.0 | 2.0 | 0.02 | 0.25 | 0.00 | 89 | 1007.4 |
| 20260505235125 | 56 | 315 | 0.0 | 1.0 | 0.03 | 0.27 | 0.00 | 89 | 1007.6 |
| 20260505234625 | 56 | 315 | 0.0 | 3.0 | 0.04 | 0.25 | 0.00 | 88 | 1007.7 |
| 20260505234125 | 56 | 293 | 2.0 | 3.0 | 0.04 | 0.25 | 0.00 | 88 | 1008.1 |
| 20260505233622 | 56 | 270 | 2.0 | 4.0 | 0.05 | 0.25 | 0.00 | 88 | 1008.1 |
| 20260505233122 | 56 | 293 | 3.0 | 4.0 | 0.08 | 0.25 | 0.00 | 88 | 1008.2 |
| 20260505232622 | 56 | 293 | 3.0 | 4.0 | 0.09 | 0.25 | 0.00 | 88 | 1008.1 |
| 20260505232125 | 56 | 293 | 3.0 | 4.0 | 0.10 | 0.25 | 0.00 | 88 | 1008.4 |
| 20260505231622 | 56 | 338 | 2.0 | 6.0 | 0.10 | 0.25 | 0.00 | 87 | 1008.5 |
| 20260505231125 | 56 | 270 | 3.0 | 6.0 | 0.10 | 0.24 | 0.00 | 87 | 1008.6 |
| 20260505230622 | 56 | 90 | 0.0 | 3.0 | 0.10 | 0.24 | 0.00 | 87 | 1008.4 |
| 20260505230125 | 56 | 203 | 0.0 | 6.0 | 0.10 | 0.25 | 0.00 | 87 | 1008.1 |
| 20260505225622 | 56 | 270 | 6.0 | 11.0 | 0.10 | 0.25 | 0.00 | 86 | 1008.2 |
| 20260505225122 | 56 | 270 | 8.0 | 10.0 | 0.09 | 0.24 | 0.00 | 85 | 1008.3 |
| 20260505224622 | 56 | 315 | 3.0 | 8.0 | 0.07 | 0.22 | 0.00 | 85 | 1008.2 |
| 20260505224122 | 57 | 270 | 5.0 | 6.0 | 0.07 | 0.22 | 0.00 | 84 | 1008.2 |
| 20260505223622 | 57 | 248 | 2.0 | 3.0 | 0.05 | 0.22 | 0.00 | 84 | 1008.2 |
| 20260505223122 | 57 | 90 | 0.0 | 2.0 | 0.03 | 0.21 | 0.00 | 84 | 1008.2 |
| 20260505222622 | 57 | 68 | 0.0 | 2.0 | 0.02 | 0.20 | 0.00 | 84 | 1008.0 |
| 20260505222125 | 57 | 90 | 1.0 | 3.0 | 0.01 | 0.18 | 0.00 | 83 | 1008.2 |
| 20260505221625 | 57 | 113 | 1.0 | 3.0 | 0.01 | 0.20 | 0.00 | 83 | 1008.5 |
| 20260505221128 | 58 | 113 | 1.0 | 6.0 | 0.00 | 0.18 | 0.00 | 82 | 1008.5 |
| 20260505220622 | 58 | 135 | 3.0 | 6.0 | 0.00 | 0.18 | 0.00 | 81 | 1008.1 |
| 20260505220122 | 58 | 90 | 1.0 | 6.0 | 0.00 | 0.20 | 0.00 | 82 | 1008.2 |
| 20260505215622 | 57 | 113 | 5.0 | 6.0 | 0.00 | 0.20 | 0.00 | 82 | 1008.2 |
| 20260505215122 | 58 | 113 | 4.0 | 6.0 | 0.00 | 0.20 | 0.00 | 82 | 1008.4 |
| 20260505214622 | 58 | 45 | 3.0 | 6.0 | 0.00 | 0.20 | 0.00 | 82 | 1008.6 |
| 20260505214125 | 58 | 90 | 4.0 | 9.0 | 0.00 | 0.20 | 0.00 | 82 | 1008.9 |
| 20260505213622 | 58 | 90 | 6.0 | 10.0 | 0.00 | 0.20 | 0.00 | 82 | 1009.4 |
| 20260505213125 | 58 | 113 | 3.0 | 9.0 | 0.00 | 0.20 | 0.00 | 83 | 1009.4 |
| 20260505212622 | 57 | 45 | 6.0 | 10.0 | 0.00 | 0.21 | 0.00 | 84 | 1009.4 |
| 20260505212122 | 57 | 68 | 6.0 | 10.0 | 0.00 | 0.21 | 0.00 | 84 | 1009.2 |
| 20260505211622 | 57 | 68 | 4.0 | 8.0 | 0.00 | 0.22 | 0.00 | 85 | 1009.3 |
| 20260505211125 | 57 | 90 | 3.0 | 8.0 | 0.00 | 0.22 | 0.00 | 85 | 1009.3 |
| 20260505210625 | 57 | 68 | 3.0 | 12.0 | 0.00 | 0.22 | 0.00 | 85 | 1009.6 |
| 20260505210122 | 57 | 90 | 6.0 | 12.0 | 0.00 | 0.22 | 0.00 | 85 | 1009.2 |
| 20260505205625 | 57 | 113 | 4.0 | 8.0 | 0.00 | 0.22 | 0.00 | 85 | 1009.4 |
| 20260505205131 | 57 | 90 | 5.0 | 8.0 | 0.00 | 0.22 | 0.00 | 85 | 1009.8 |
| 20260505204625 | 57 | 113 | 5.0 | 8.0 | 0.00 | 0.22 | 0.00 | 85 | 1009.7 |
| 20260505204122 | 57 | 68 | 5.0 | 10.0 | 0.00 | 0.22 | 0.00 | 85 | 1009.7 |
| 20260505203625 | 57 | 45 | 5.0 | 10.0 | 0.00 | 0.22 | 0.00 | 86 | 1009.5 |
| 20260505203122 | 57 | 113 | 6.0 | 10.0 | 0.00 | 0.22 | 0.00 | 86 | 1009.6 |
| 20260505202625 | 57 | 113 | 4.0 | 8.0 | 0.00 | 0.22 | 0.00 | 86 | 1009.5 |
| 20260505202122 | 57 | 90 | 5.0 | 10.0 | 0.00 | 0.22 | 0.00 | 86 | 1009.6 |
| 20260505201622 | 57 | 90 | 4.0 | 9.0 | 0.00 | 0.22 | 0.00 | 86 | 1009.4 |
| 20260505201122 | 57 | 135 | 4.0 | 8.0 | 0.00 | 0.22 | 0.00 | 86 | 1009.4 |
| 20260505200622 | 57 | 113 | 3.0 | 6.0 | 0.00 | 0.22 | 0.00 | 86 | 1009.2 |
| 20260505200125 | 57 | 113 | 5.0 | 6.0 | 0.00 | 0.22 | 0.00 | 86 | 1009.4 |
| 20260505195625 | 57 | 113 | 2.0 | 4.0 | 0.00 | 0.22 | 0.00 | 86 | 1009.3 |
| 20260505195122 | 57 | 113 | 2.0 | 4.0 | 0.00 | 0.22 | 0.00 | 86 | 1009.3 |
| 20260505194622 | 57 | 135 | 2.0 | 4.0 | 0.00 | 0.23 | 0.00 | 86 | 1009.3 |